Regional Weather Roundup
Issued by NWS

Home | Current Version | Previous Version | Graphics & Text | Print | Product List | Glossary On
Versions: 1 2 3 4 5 6 7 8 9 10 11 12 13 14 15 16 17 18 19 20 21 22 23 24 25 26 27
000
ASUS45 KBOU 062307
RWRCO

WEATHER ROUNDUP FOR COLORADO
NATIONAL WEATHER SERVICE DENVER/BOULDER CO
400 PM MST TUE DEC 06 2016

NOTE: "FAIR" INDICATES FEW OR NO CLOUDS BELOW 12000 FEET WITH NO
SIGNIFICANT WEATHER AND/OR OBSTRUCTIONS TO VISIBILITY.

COZ001>005-013-030-031-070000-
...NORTHWEST COLORADO...

CITY           SKY/WX    TMP DP  RH WIND       PRES   REMARKS
CRAIG          CLOUDY    27   8  44 E8        29.68F WCI  19
HAYDEN         MOCLDY    21   7  53 SE6       29.66F WCI  14
MEEKER         FAIR      28  10  46 CALM      29.63F
MOUNT WERNER   NOT AVBL
STEAMBOAT SPGS CLOUDY    19   8  62 CALM      29.66F
WALDEN           N/A     14   3  62 NW6       29.65F WCI   5
$$

COZ006>008-011-070000-
...WEST CENTRAL VALLEYS...

CITY           SKY/WX    TMP DP  RH WIND       PRES   REMARKS
GRAND JUNCTION FAIR      33   8  35 CALM      29.69F
MONTROSE       FAIR      38  13  35 N5        29.68F
EAGLE          CLOUDY    25  10  54 CALM      29.69F
RIFLE          CLOUDY    30  10  43 CALM      29.68F
DELTA          NOT AVBL
NUCLA          FAIR      37  18  44 CALM      29.71F
$$

COZ017>023-064>068-070000-
...SOUTHWEST COLORADO...

CITY           SKY/WX    TMP DP  RH WIND       PRES   REMARKS
DURANGO        FAIR      40  14  34 SW12      29.74F
CORTEZ         FAIR      44  19  36 S13       29.74S
PAGOSA SPRINGS CLOUDY    34  15  45 SW7       29.76S WCI  28
TELLURIDE      CLOUDY    30   6  36 SW8G16    29.72R WCI  23
WOLF CREEK PAS CLOUDY    12  10  92 SW28G39   29.70F FOG     WCI  -9
$$

COZ009-010-012-014-032>034-037-058>063-070000-
...CENTRAL COLORADO...

CITY           SKY/WX    TMP DP  RH WIND       PRES   REMARKS
ASPEN          CLOUDY    28  10  46 SE6       29.62S WCI  22
BUENA VISTA    CLOUDY    29   9  43 CALM      29.64S
COPPER MTN     NOT AVBL
BERTHOUD PASS  LGT SNOW   5  -8  56 MISG      29.55F VSB 1
COTTONWOOD PAS LGT SNOW  23  19  86 SE6       29.63S VSB 3/4 WCI  16
GUNNISON       FLURRIES  26  19  74 CALM      29.67F
KREMMLING      CLOUDY    23  10  58 CALM      29.68F
LEADVILLE      LGT SNOW  17  13  84 S6        29.59S VSB 3/4 WCI   9
MONARCH PASS   SNOW      12  10  92 SW26G39   29.72S VSB<1/4 WCI  -8
SALIDA         CLOUDY    24   2  37 SE18G24   29.75S WCI  10
SUNLIGHT       LGT SNOW  14  10  85 SW13G26   29.64F WCI   0
WILKERSON PASS MOCLDY    14   3  62 SW10G17   29.62S WCI   1
$$

COZ069>075-070000-
...SAN LUIS VALLEY/SANGRE DE CRISTO MOUNTAINS...

CITY           SKY/WX    TMP DP  RH WIND       PRES   REMARKS
ALAMOSA        FAIR      33  21  61 S17G28    29.71F WCI  22
LA VETA PASS   FLURRIES  21  18  86 NE22G40   29.68F WCI   5
SAGUACHE       FAIR      34  10  37 W15G22    29.66F WCI  24
$$

COZ035-036-038>040-070000-
...NORTHERN COLORADO FRONT RANGE...

CITY           SKY/WX    TMP DP  RH WIND       PRES   REMARKS
DENVER INTL AP MOCLDY    25   4  40 S18       29.82R WCI  11
DMNS CITY PARK   N/A     26   5  40 E7G20     29.82R WCI  18
AURORA         NOT AVBL
FRONT RANGE AP CLOUDY    27   1  33 SE14      29.83S WCI  15
ERIE MUNI ARPT CLOUDY    28   7  40 W15       29.81R WCI  17
BOULDER MUN AP CLOUDY    27  12  54 W9        29.82S WCI  17
CENTENNIAL     CLOUDY    24   1  36 SE16      29.78F WCI  11
BROOMFIELD     CLOUDY    27   9  46 NW15      29.79F WCI  15
FORT COLLINS   FAIR      28   3  34 SE13G22   29.84S WCI  18
LONGMONT       CLOUDY    31   8  38 NW10      29.84S WCI  22
$$

COZ041-046-047-076>085-087-088-070000-
...PIKES PEAK/PALMER DIVIDE AND SOUTHERN FOOTHILLS...

CITY           SKY/WX    TMP DP  RH WIND       PRES   REMARKS
COLO. SPRINGS  MOCLDY    20  -2  38 SE16      29.81S WCI   6
A. F. ACADEMY  NOT AVBL
SCHRIEVER AFB  NOT AVBL
ELLICOTT       FAIR     N/A N/A N/A S14       29.81S
FALCON         FAIR      17  -3  39 SE16      29.79S WCI   2
FORT CARSON    NOT AVBL
LIMON          FAIR      23  -4  30 SE13      29.86S WCI  11
MONUMENT HILL  CLOUDY    18   0  45 S15G23    29.77S WCI   3
TRINIDAD       FAIR      36   7  29 W5        29.76S
$$

COZ042>045-048>051-090-091-070000-
...NORTHEAST COLORADO...

CITY           SKY/WX    TMP DP  RH WIND       PRES   REMARKS
GREELEY ARPT   NOT AVBL
AKRON          CLOUDY    25 -13  18 SE7       29.89S WCI  17
BURLINGTON     FAIR      31  -8  18 SE8       29.93S WCI  23
WRAY           NOT AVBL
STERLING       CLOUDY    30  -4  22 E3        29.90S
HOLYOKE        FAIR      32  -4  21 CALM      29.94F
FORT MORGAN    CLOUDY    28 -14  16 E7        29.89S WCI  20
$$

COZ086-089-092>099-070000-
...SOUTHEAST COLORADO...

CITY           SKY/WX    TMP DP  RH WIND       PRES   REMARKS
PUEBLO         FAIR      28   0  29 E12       29.86S WCI  18
LA JUNTA       FAIR      31  -1  25 E18G29    29.86F WCI  19
LAMAR          FAIR      31   0  26 SE14      29.92F WCI  21
SPRINGFIELD      N/A     28  -1  28 SE20      29.89F WCI  15
$$




USA.gov is the U.S. government's official web portal to all federal, state and local government web resources and services.